STARLINK-31556, 59544

Orbit data source: Space-Track

STARLINK-31556, 59544 is a payload satellite owned by SpaceX/Seattle (US) in LEO that was launched on Thu, 18 Apr 2024 UTC via an FALCON 9 launch vehicle from the Air Force Eastern Test Range (AFETR). Payload-class satellites include a variety of spacecraft equipped with specific instruments for various scientific and technological missions. These include communications satellites like Starlink; space stations such as the ISS; scientific satellites like the Hubble; Earth observation satellites from companies like Planet Labs, Umbra, and HawkEye 360; GPS; miniature CubeSats for education and research; and military/defense satellites.

Loading next visibility...
Identifier
59544, 2024-074L
Orbit
LEO
Country
Flag of USUS
Related business
Manufacturer
SpaceX/Seattle
Mission
Operational Commercial Communications
Bus & Motor
STARLINK V2M, Unknown motor
Mass
730 kg wet, ~700 kg dry
Launch date (UTC)
2024-04-18 (2 years ago)
Launch vehicle
FALCON 9
Launch site
Air Force Eastern Test Range (AFETR)
Object type
Payload
Rocket body
Debris
Shape & HBR
Box + 2 Pan, 17.7 m
Radar Cross Section
33.884 m², Large (>1 m²)

Expand to show TLE details & history
Last TLE update: 2 days ago

TLE from 2 days ago
0 STARLINK-31556
1 59544U 24074L   26171.22353674  .00000669  00000-0  33818-4 0  9991
2 59544  43.0012 124.6327 0001145 270.9499  89.1221 15.27577700121698
Epoch: 2026-06-20T05:21Z
TLE epoch observation values (Epoch: 2026-06-20T05:21:53.574Z)
Latitude
-0.00004°
Longitude
135.71819°
Altitude
482.82 km
Speed
7.626 km/s
True Right ascension
08h 18m 31s
True Declination
0° 00' 00"
Sunlit
Object was in daylight at epoch
Visualization orbit readout
Latitude
Unknown
Longitude
Unknown
Altitude
Unknown
Speed
Unknown
Apparent Right ascension
Unknown
Apparent Declination
Unknown
Sunlit
N/A
Visualization observer readout
Local Sidereal Time
21:25:09
Azimuth
Unknown
Elevation
Unknown
Doppler factor
Unknown
Orbital elements
Apogee altitude
485.787 km
Perigee altitude
484.215 km
Semi-major axis
6,863.138 km
Eccentricity
0.00011
Inclination
43.0012°
RAAN
124.6327°
Arg. of periapsis
270.9499°
True anomaly
89.13522°
Mean anomaly
89.1221°
Eccentric anomaly
89.12866°
Mean motion
3.81732 °/min
Orbital period
94.31 mins
BSTAR
0.000033818
Loading maneuver chart data...
Computing Atmospheric mass density...
Loading historical data...
Loading historical data...
Loading historical data...
Loading historical data...
Loading historical data...
Loading historical data...
Loading historical data...

Documentation

Showing up to 5 results
|